COSMOS 1261 DEB, 12893

Orbit data source: Space-Track

COSMOS 1261 DEB, 12893 is space debris originally from a launch on Tue, 31 Mar 1981 UTC launched from the Plesetsk Missile And Space Complex (PKMTR). Debris objects in space refer to the collection of defunct objects orbiting the Earth. Examples of debris include non-operational satellites, rocket bodies, and fragments generated from explosions, collisions, or faulty payload assembly.

Loading next visibility...
Identifier
12893, 1981-031F
Orbit
Molniya
Country
Flag of CISCIS
Related business
Manufacturer
Unknown
Mission
Spacecraft
Bus & Motor
Unknown
Mass
Unknown
Launch date (UTC)
1981-03-31 (45 years ago)
Launch vehicle
Unknown
Launch site
Plesetsk Missile And Space Complex (PKMTR)
Object type
Payload
Rocket body
Debris
Shape & HBR
Unknown shape, 0.6 m
Radar Cross Section
Medium (>0.1 m² and <1 m²)

Expand to show TLE details & history
Last TLE update: 1 day ago

TLE from 1 day ago
0 COSMOS 1261 DEB
1 12893U 81031F   25353.41692907 -.00000807  00000-0  00000+0 0  9997
2 12893  64.6583   7.8904 7107267  26.9302 356.9104  2.01108501308497
Epoch: 2025-12-19T10:00Z
TLE epoch observation values (Epoch: 2025-12-19T10:00:22.671Z)
Latitude
0.0001°
Longitude
129.51812°
Altitude
1,658.29 km
Speed
9.175 km/s
True Right ascension
00h 31m 29s
True Declination
0° 00' 00"
Sunlit
Object was in daylight at epoch
Visualization orbit readout
Latitude
Unknown
Longitude
Unknown
Altitude
Unknown
Speed
Unknown
Apparent Right ascension
Unknown
Apparent Declination
Unknown
Sunlit
N/A
Visualization observer readout
Local Sidereal Time
14:47:39
Azimuth
Unknown
Elevation
Unknown
Doppler factor
Unknown
Orbital elements
Apogee altitude
38,975.437 km
Perigee altitude
1,290.872 km
Semi-major axis
26,511.292 km
Eccentricity
0.71073
Inclination
64.6583°
RAAN
7.8904°
Arg. of periapsis
26.9302°
True anomaly
334.72613°
Mean anomaly
356.9104°
Eccentric anomaly
349.46504°
Mean motion
0.5028 °/min
Orbital period
715.99 mins
BSTAR
0
Loading maneuver chart data...
Computing Atmospheric mass density...
Loading historical data...
Loading historical data...
Loading historical data...
Loading historical data...
Loading historical data...
Loading historical data...
Loading historical data...

Documentation

Showing up to 5 results
|